STARLINK-36405

Last updated on Tue Mar 24 2026 00:02:06 GMT+0000 (Coordinated Universal Time)

1 67921U 26036T 26082.36032704 -.00278644 00000+0 -50006-2 0 9990 2 67921 42.9985 168.8648 0001759 253.3939 106.6728 15.50091528 5800
UTC large
Height (km)
Speed (km/s)
/
Latitude / Longitude
Inclination (degrees)
Orbital Period (minutes)
Azimuth
Elevation
Range (km)
Doppler Factor

Next 0 passes for location: London (51.5072 / 0.1276)

Sorry there are no passes over London.